Location: Newark
(61.5000°N, 23.7667°E)
Time: 07:25:21
(UTC+00:00)

ISS - Pass Details

Date: 25 September 2019
Orbit: 411 x 421 km, 51.6° (Epoch: 23 October)

Event Time Altitude Azimuth Distance (km) Brightness Sun altitude
Rises 18:32:27 0° 237° (WSW) 2,344 0.4 -16.3°
Reaches altitude 10° 18:35:08 10° 214° (SSW) 1,483 -0.9 -16.6°
Enters shadow 18:36:25 14° 192° (SSW) 1,243 -1.6 -16.7°
